FW9150 Weather Reports


Display with metric or nautical units.
time (UTC)temp
F
wind
direction
speed
MPH
gust
MPH
rain 1hr
in
rain 24hr
in
rain mn
in
humidity
%
barometer
mb
20260510224217 77 198 0.0 3.0 0.00 0.00 0.00 41 1022.7
20260510223316 77 160 0.0 2.0 0.00 0.00 0.00 39 1022.8
20260510221418 77 255 1.0 3.0 0.00 0.00 0.00 39 1023.0
20260510215417 79 149 5.0 7.0 0.00 0.00 0.00 34 1023.0
20260510214416 78 237 0.0 2.0 0.00 0.00 0.00 35 1023.0
20260510213418 78 318 1.0 3.0 0.00 0.00 0.00 37 1023.1
20260510212417 79 290 2.0 4.0 0.00 0.00 0.00 35 1023.0
20260510211435 78 208 2.0 5.0 0.00 0.00 0.00 34 1023.0
20260510205417 80 157 1.0 2.0 0.00 0.00 0.00 37 1023.2
20260510204419 82 130 1.0 3.0 0.00 0.00 0.00 35 1023.2
20260510203516 83 231 2.0 4.0 0.00 0.00 0.00 38 1023.3
20260510202517 82 162 0.0 1.0 0.00 0.00 0.00 41 1023.2
20260510201616 82 191 1.0 4.0 0.00 0.00 0.00 42 1023.2
20260510195716 81 303 0.0 0.0 0.00 0.00 0.00 42 1023.2
20260510194718 80 209 0.0 1.0 0.00 0.00 0.00 42 1023.1
20260510191719 81 135 0.0 1.0 0.00 0.00 0.00 39 1023.2
20260510190718 80 225 0.0 0.0 0.00 0.00 0.00 40 1023.2
20260510185718 79 157 0.0 2.0 0.00 0.00 0.00 38 1023.3
20260510183817 78 195 2.0 3.0 0.00 0.00 0.00 41 1023.2
20260510182819 77 315 0.0 2.0 0.00 0.00 0.00 41 1023.4
20260510181818 79 214 0.0 2.0 0.00 0.00 0.00 40 1023.2
20260510181716 79 163 0.0 2.0 0.00 0.00 0.00 39 1023.2
20260510180718 79 232 0.0 1.0 0.00 0.00 0.00 40 1023.2
20260510175717 78 45 0.0 0.0 0.00 0.00 0.00 38 1023.0
20260510174717 78 180 0.0 0.0 0.00 0.00 0.00 32 1022.8
20260510172717 77 223 2.0 3.0 0.00 0.00 0.00 32 1022.8
20260510171716 77 180 0.0 2.0 0.00 0.00 0.00 34 1022.8
20260510170718 76 202 0.0 0.0 0.00 0.00 0.00 35 1022.7
20260510165817 75 135 0.0 0.0 0.00 0.00 0.00 36 1022.7
20260510164819 74 135 1.0 2.0 0.00 0.00 0.00 35 1022.7
20260510163818 73 214 1.0 2.0 0.00 0.00 0.00 40 1022.6
20260510162820 72 157 0.0 2.0 0.00 0.00 0.00 43 1022.4
20260510161817 70 157 0.0 1.0 0.00 0.00 0.00 44 1022.6
20260510155819 65 135 0.0 1.0 0.00 0.00 0.00 54 1022.8
20260510154817 63 45 0.0 0.0 0.00 0.00 0.00 54 1022.7
20260510153818 61 45 0.0 0.0 0.00 0.00 0.00 58 1022.7
20260510152817 60 45 0.0 0.0 0.00 0.00 0.00 60 1022.7
20260510151817 59 45 0.0 0.0 0.00 0.00 0.00 59 1022.8
20260510150817 58 45 0.0 0.0 0.00 0.00 0.00 62 1022.7
20260510144817 57 45 0.0 0.0 0.00 0.00 0.00 62 1022.6
20260510143818 56 45 0.0 0.0 0.00 0.00 0.00 61 1022.4
20260510142834 55 45 0.0 0.0 0.00 0.00 0.00 64 1022.4
20260510141916 54 45 0.0 0.0 0.00 0.00 0.00 64 1022.3
20260510140918 54 45 0.0 0.0 0.00 0.00 0.00 61 1022.1
20260510135916 54 45 0.0 0.0 0.00 0.00 0.00 58 1022.1
20260510134919 53 45 0.0 0.0 0.00 0.00 0.00 60 1022.0
20260510134016 53 45 0.0 0.0 0.00 0.00 0.00 63 1022.0
20260510133016 52 45 0.0 0.0 0.00 0.00 0.00 64 1021.8
20260510132918 52 45 0.0 0.0 0.00 0.00 0.00 64 1021.8
20260510132016 52 45 0.0 0.0 0.00 0.00 0.00 65 1021.8
20260510131024 53 45 0.0 0.0 0.00 0.00 0.00 65 1021.7
20260510130117 53 45 0.0 0.0 0.00 0.00 0.00 64 1021.7
20260510125117 53 45 0.0 0.0 0.00 0.00 0.00 63 1021.9
20260510124134 53 45 0.0 0.0 0.00 0.00 0.00 63 1021.7
20260510123119 52 45 0.0 0.0 0.00 0.00 0.00 65 1021.8
20260510122124 52 45 0.0 0.0 0.00 0.00 0.00 67 1021.7
20260510121216 52 45 0.0 0.0 0.00 0.00 0.00 69 1021.7
20260510120218 53 45 0.0 0.0 0.00 0.00 0.00 70 1021.8
20260510115217 53 45 0.0 0.0 0.00 0.00 0.00 68 1021.6
20260510114316 54 45 0.0 0.0 0.00 0.00 0.00 66 1021.7
20260510110316 53 45 0.0 0.0 0.00 0.00 0.00 78 1021.9
20260510102433 54 45 0.0 0.0 0.00 0.00 0.00 86 1022.0
20260510101433 54 45 0.0 0.0 0.00 0.00 0.00 86 1022.0
20260510095517 54 45 0.0 0.0 0.00 0.00 0.00 85 1022.1
20260510094517 53 45 0.0 0.0 0.00 0.00 0.00 86 1022.1
20260510093517 54 45 0.0 0.0 0.00 0.00 0.00 85 1022.0
20260510092517 54 45 0.0 0.0 0.00 0.00 0.00 84 1022.1
20260510091518 54 45 0.0 0.0 0.00 0.00 0.00 85 1022.0
20260510090517 54 45 0.0 0.0 0.00 0.00 0.00 85 1022.1
20260510084618 54 45 0.0 0.0 0.00 0.00 0.00 84 1022.1
20260510082618 55 45 0.0 0.0 0.00 0.00 0.00 85 1021.9
20260510081616 54 45 0.0 0.0 0.00 0.00 0.00 86 1022.0
20260510080618 54 45 0.0 0.0 0.00 0.00 0.00 86 1022.0
20260510075636 55 45 0.0 0.0 0.00 0.00 0.00 85 1022.1
20260510074617 55 45 0.0 0.0 0.00 0.00 0.00 85 1022.1
20260510073716 55 45 0.0 0.0 0.00 0.00 0.00 86 1022.2
20260510072719 55 45 0.0 0.0 0.00 0.00 0.00 85 1022.2
20260510071734 55 45 0.0 0.0 0.00 0.00 0.00 86 1022.2
20260510070816 55 45 0.0 0.0 0.00 0.00 0.00 86 1022.2
20260510065914 55 45 0.0 0.0 0.00 0.00 0.00 86 1022.1
20260510064912 55 45 0.0 0.0 0.00 0.00 0.00 86 1022.1
20260510063912 55 45 0.0 0.0 0.00 0.00 0.00 85 1022.0
20260510062913 55 45 0.0 0.0 0.00 0.00 0.00 84 1022.0
20260510062011 55 45 0.0 0.0 0.00 0.00 0.00 84 1021.9
20260510061015 56 45 0.0 0.0 0.00 0.00 0.00 84 1022.1
20260510060012 56 45 0.0 0.0 0.00 0.00 0.00 83 1022.2
20260510055110 56 45 0.0 0.0 0.00 0.00 0.00 82 1022.1
20260510053112 56 45 0.0 0.0 0.00 0.00 0.00 82 1022.2
20260510052211 57 45 0.0 0.0 0.00 0.00 0.00 80 1022.2
20260510051210 57 45 0.0 0.0 0.00 0.00 0.00 81 1022.2
20260510050212 57 45 0.0 0.0 0.00 0.00 0.00 79 1022.4
20260510045211 57 45 0.0 0.0 0.00 0.00 0.00 79 1022.4
20260510044213 57 45 0.0 0.0 0.00 0.00 0.00 80 1022.1
20260510043310 57 45 0.0 0.0 0.00 0.00 0.00 78 1022.1
20260510040313 59 45 0.0 0.0 0.00 0.00 0.00 76 1022.1
20260510035312 59 45 0.0 0.0 0.00 0.00 0.00 75 1022.0
20260510034311 60 45 0.0 0.0 0.00 0.00 0.00 75 1021.8
20260510033313 60 45 0.0 0.0 0.00 0.00 0.00 75 1021.9
20260510032411 60 45 0.0 0.0 0.00 0.00 0.00 73 1021.8
20260510031412 61 45 0.0 0.0 0.00 0.00 0.00 73 1021.8
20260510025412 62 90 0.0 0.0 0.00 0.00 0.00 70 1021.7
20260510024411 63 90 0.0 0.0 0.00 0.00 0.00 69 1021.5
20260510023411 63 112 0.0 0.0 0.00 0.00 0.00 68 1021.4
20260510022411 64 112 0.0 0.0 0.00 0.00 0.00 67 1021.4
20260510021413 64 112 0.0 0.0 0.00 0.00 0.00 66 1021.3
20260510015428 65 112 0.0 0.0 0.00 0.00 0.00 63 1021.3
20260510014411 66 112 0.0 0.0 0.00 0.00 0.00 61 1021.3
20260510013511 66 53 0.0 0.0 0.00 0.00 0.00 61 1021.3
20260510012512 67 45 0.0 0.0 0.00 0.00 0.00 60 1021.4
20260510010511 68 157 0.0 0.0 0.00 0.00 0.00 57 1021.4
20260510005510 68 9 0.0 0.0 0.00 0.00 0.00 57 1021.3
20260510004512 68 180 0.0 0.0 0.00 0.00 0.00 56 1021.4
20260510003513 69 180 0.0 1.0 0.00 0.00 0.00 54 1021.4
20260510002513 69 180 0.0 2.0 0.00 0.00 0.00 54 1021.3
20260510001513 70 22 0.0 0.0 0.00 0.00 0.00 51 1021.4
20260510000514 70 227 0.0 2.0 0.00 0.00 0.00 51 1021.3
20260509235512 70 264 0.0 1.0 0.00 0.00 0.00 51 1021.4
20260509234512 71 161 0.0 3.0 0.00 0.00 0.00 50 1021.5
20260509233612 71 168 3.0 4.0 0.00 0.00 0.00 49 1021.4
20260509232711 71 112 0.0 0.0 0.00 0.00 0.00 48 1021.3
20260509232627 71 128 0.0 2.0 0.00 0.00 0.00 48 1021.4
20260509231711 71 157 0.0 1.0 0.00 0.00 0.00 46 1021.4
20260509230713 71 200 1.0 2.0 0.00 0.00 0.00 46 1021.3
20260509225711 72 247 0.0 1.0 0.00 0.00 0.00 44 1021.4
20260509224713 72 16 0.0 2.0 0.00 0.00 0.00 43 1021.5